{"data":{"norad_id":65696,"epoch":"2026-09-20T10:18:34.947360Z","epoch_age_seconds":114846,"freshness":"FRESH","line1":"1 65696U 25212W   26263.42957115  .00006932  00000+0  23502-3 0  9991","line2":"2 65696  53.1581 159.3827 0000967 101.4978 258.6132 15.31690070 57083","mean_motion":15.3169007,"eccentricity":9.67e-5,"inclination_deg":53.1581,"raan_deg":159.3827,"arg_perigee_deg":101.4978,"mean_anomaly_deg":258.6132,"bstar":0.00023502,"rev_number":5708,"period_min":94.013797451857,"perigee_km":470.107306931,"apogee_km":471.4318854667,"semimajor_km":6848.9065961989,"source":"CELESTRAK","updated_at":"2026-09-21T09:00:35.689250Z"}}